$Date,$Time,DM0201B,DM0203B,DM0205B,DM0207B,DM0209B
12/01/98,00:00:01,419,167,-8,447,955
12/01/98,00:05:01,408,167,-8,390,955
12/01/98,00:10:01,359,167,-8,441,955
12/01/98,00:15:01,444,169,-8,454,955
12/01/98,00:20:01,398,172,-8,473,955
12/01/98,00:25:01,385,161,-8,539,955
12/01/98,00:30:01,418,168,-8,611,955
12/01/98,00:35:01,385,168,-8,637,955
12/01/98,00:40:01,395,178,-8,654,955
12/01/98,00:45:01,409,166,-7,675,955
12/01/98,00:50:01,422,166,-7,537,955
12/01/98,00:55:01,425,166,-7,467,955
12/01/98,01:00:01,347,166,-7,436,955
12/01/98,01:05:01,362,177,-7,423,955
12/01/98,01:10:01,295,176,-7,394,955
12/01/98,01:15:01,320,165,-7,388,955
12/01/98,01:20:01,309,165,-7,382,955
12/01/98,01:25:01,274,165,-7,409,955
12/01/98,01:30:01,322,180,-7,409,955
12/01/98,01:35:01,294,159,-7,418,955
12/01/98,01:40:01,407,152,-7,412,955
12/01/98,01:45:01,431,168,-7,415,955
12/01/98,01:50:01,459,171,-7,426,955
12/01/98,01:55:01,366,170,-7,433,955
12/01/98,02:00:01,407,170,-7,454,955
12/01/98,02:05:01,366,170,-7,438,955
12/01/98,02:10:01,390,168,-7,498,955
12/01/98,02:15:01,408,168,-7,534,955
12/01/98,02:20:01,306,168,-7,513,955
12/01/98,02:25:01,316,168,-6,464,955
12/01/98,02:30:01,338,168,-6,408,955
12/01/98,02:35:01,337,170,-7,375,955
12/01/98,02:40:01,293,159,-7,357,955
12/01/98,02:45:01,335,157,-7,353,955
12/01/98,02:50:01,358,157,-7,339,955
12/01/98,02:55:01,358,159,-7,319,955
12/01/98,03:00:01,351,158,-7,301,955
12/01/98,03:05:01,375,159,-7,282,955
12/01/98,03:10:01,358,162,-7,259,955
12/01/98,03:15:01,346,162,-7,245,955
12/01/98,03:20:01,352,162,-7,249,955
12/01/98,03:25:01,367,152,-7,253,955
12/01/98,03:30:01,310,152,-7,249,955
12/01/98,03:35:01,342,162,-7,249,955
12/01/98,03:40:01,301,162,-7,275,955
12/01/98,03:45:01,316,162,-7,288,955
12/01/98,03:50:01,323,151,-7,306,955
12/01/98,03:55:01,279,161,-7,320,955
12/01/98,04:00:01,324,161,-7,353,955
12/01/98,04:05:01,322,162,-6,370,955
12/01/98,04:10:01,267,161,-6,363,955
12/01/98,04:15:01,277,161,-6,347,955
12/01/98,04:20:01,312,158,-6,322,955
12/01/98,04:25:01,304,152,-6,304,955
12/01/98,04:30:01,309,159,-6,288,955
12/01/98,04:35:01,235,153,-6,275,955
12/01/98,04:40:01,250,163,-6,271,955
12/01/98,04:45:01,255,157,-6,273,955
12/01/98,04:50:01,274,166,-6,271,953
12/01/98,04:55:01,320,163,-6,256,953
12/01/98,05:00:01,279,163,-7,262,953
12/01/98,05:05:01,271,163,-7,266,953
12/01/98,05:10:01,266,173,-7,266,953
12/01/98,05:15:01,222,180,-7,262,953
12/01/98,05:20:01,189,180,-7,254,953
12/01/98,05:25:01,179,180,-7,242,953
12/01/98,05:30:01,167,183,-7,251,953
12/01/98,05:35:01,153,171,-7,280,953
12/01/98,05:40:01,169,174,-7,279,953
12/01/98,05:45:01,190,177,-7,251,953
12/01/98,05:50:01,188,187,-7,241,953
12/01/98,05:55:01,172,175,-7,226,953
12/01/98,06:00:01,163,179,-7,213,953
12/01/98,06:05:01,166,177,-7,201,953
12/01/98,06:10:01,166,165,-7,177,953
12/01/98,06:15:01,142,176,-7,162,953
12/01/98,06:20:01,150,186,-7,154,953
12/01/98,06:25:01,139,175,-8,148,953
12/01/98,06:30:01,167,186,-8,148,953
12/01/98,06:35:01,151,186,-8,134,953
12/01/98,06:40:01,139,186,-8,119,953
12/01/98,06:45:01,147,174,-8,107,953
12/01/98,06:50:01,151,185,-8,92,953
12/01/98,06:55:01,151,185,-8,102,953
12/01/98,07:00:01,161,195,-8,98,953
12/01/98,07:05:01,144,195,-8,96,953
12/01/98,07:10:01,141,225,-8,117,953
12/01/98,07:15:01,142,246,-9,133,953
12/01/98,07:20:01,82,219,-9,129,953
12/01/98,07:25:01,136,253,-9,125,953
12/01/98,07:30:01,119,255,-9,127,953
12/01/98,07:35:01,116,264,-9,127,953
12/01/98,07:40:01,134,262,-9,123,953
12/01/98,07:45:01,156,263,-9,119,953
12/01/98,07:50:01,150,242,-9,117,953
12/01/98,07:55:01,119,239,-9,115,953
12/01/98,08:00:01,210,207,-8,113,953
12/01/98,08:05:01,293,197,-8,119,953
12/01/98,08:10:01,335,186,-8,113,953
12/01/98,08:15:01,339,186,-8,113,953
12/01/98,08:20:01,361,186,-9,107,953
12/01/98,08:25:01,329,179,-9,103,953
12/01/98,08:30:01,337,179,-9,101,953
12/01/98,08:35:01,296,168,-9,92,953
12/01/98,08:40:01,384,178,-9,84,953
12/01/98,08:45:01,274,190,-9,79,953
12/01/98,08:50:01,351,171,-10,81,953
12/01/98,08:55:01,457,181,-10,69,953
12/01/98,09:00:01,413,181,-10,51,953
12/01/98,09:05:01,403,181,-10,39,953
12/01/98,09:10:01,401,181,-10,25,953
12/01/98,09:15:01,326,181,-11,19,953
12/01/98,09:20:01,437,181,-11,18,953
12/01/98,09:25:01,378,185,-11,27,953
12/01/98,09:30:01,349,175,-11,21,953
12/01/98,09:35:01,308,175,-11,12,955
12/01/98,09:40:01,311,172,-11,14,955
12/01/98,09:45:01,418,176,-11,20,955
12/01/98,09:50:01,462,186,-11,32,955
12/01/98,09:55:01,403,186,-11,36,955
12/01/98,10:00:01,454,175,-11,72,955
12/01/98,10:05:01,422,175,-11,70,955
12/01/98,10:10:01,447,177,-11,86,955
12/01/98,10:15:01,529,177,-11,89,955
12/01/98,10:20:01,540,177,-11,89,953
12/01/98,10:25:01,438,177,-11,90,955
12/01/98,10:30:01,374,177,-11,77,955
12/01/98,10:35:01,437,173,-11,84,955
12/01/98,10:40:01,435,173,-11,82,955
12/01/98,10:45:01,484,174,-11,81,955
12/01/98,10:50:01,449,176,-11,79,955
12/01/98,10:55:01,426,176,-11,81,955
12/01/98,11:00:01,381,166,-11,81,955
12/01/98,11:05:01,345,156,-11,76,955
12/01/98,11:10:01,345,161,-11,81,955
12/01/98,11:15:01,391,161,-11,84,955
12/01/98,11:20:01,468,163,-11,87,955
12/01/98,11:25:01,416,174,-11,93,955
12/01/98,11:30:01,437,163,-12,93,955
12/01/98,11:35:01,382,163,-12,95,955
12/01/98,11:40:01,368,163,-12,93,955
12/01/98,11:45:01,393,163,-12,87,955
12/01/98,11:50:01,458,176,-12,103,955
12/01/98,11:55:01,472,173,-12,115,955
12/01/98,12:00:01,473,174,-12,117,955
12/01/98,12:05:01,453,179,-12,119,955
12/01/98,12:10:01,456,179,-12,117,955
12/01/98,12:15:01,443,168,-12,113,955
12/01/98,12:20:01,419,168,-12,109,955
12/01/98,12:25:01,515,163,-12,105,955
12/01/98,12:30:01,553,173,-12,103,955
12/01/98,12:35:01,538,163,-12,99,955
12/01/98,12:40:01,595,174,-12,97,955
12/01/98,12:45:01,530,174,-12,93,955
12/01/98,12:50:01,414,174,-12,93,955
12/01/98,12:55:01,435,174,-12,93,955
12/01/98,13:00:01,376,162,-12,93,955
12/01/98,13:05:01,461,162,-12,89,955
12/01/98,13:10:01,399,162,-12,87,955
12/01/98,13:15:01,359,174,-12,91,955
12/01/98,13:20:01,414,162,-12,93,955
12/01/98,13:25:01,406,152,-12,96,955
12/01/98,13:30:01,522,159,-12,95,955
12/01/98,13:35:01,443,159,-12,94,955
12/01/98,13:40:01,421,161,-12,85,955
12/01/98,13:45:01,425,162,-12,91,955
12/01/98,13:50:01,487,162,-12,64,955
12/01/98,13:55:01,476,162,-12,80,955
12/01/98,14:00:01,467,164,-12,95,955
12/01/98,14:05:01,343,163,-12,102,955
12/01/98,14:10:01,392,163,-12,137,955
12/01/98,14:15:01,368,173,-12,126,955
12/01/98,14:20:01,416,163,-12,116,955
12/01/98,14:25:01,366,155,-12,122,955
12/01/98,14:30:01,405,159,-12,75,955
12/01/98,14:35:01,356,158,-12,82,955
12/01/98,14:40:01,533,160,-12,55,955
12/01/98,14:45:01,469,160,-12,57,955
12/01/98,14:50:01,490,160,-13,54,955
12/01/98,14:55:01,571,162,-13,93,955
12/01/98,15:00:01,495,162,-13,72,955
12/01/98,15:05:01,531,162,-13,96,955
12/01/98,15:10:01,432,173,-13,99,955
12/01/98,15:15:01,459,162,-13,106,955
12/01/98,15:20:01,459,158,-13,119,955
12/01/98,15:25:01,489,160,-13,214,955
12/01/98,15:30:01,469,161,-13,222,955
12/01/98,15:35:01,468,161,-13,228,955
12/01/98,15:40:01,463,160,-13,223,955
12/01/98,15:45:01,438,160,-13,223,955
12/01/98,15:50:01,516,171,-13,231,955
12/01/98,15:55:01,468,175,-13,157,955
12/01/98,16:00:01,541,164,-13,66,955
12/01/98,16:05:01,527,164,-13,80,955
12/01/98,16:10:01,468,164,-13,137,955
12/01/98,16:15:01,497,164,-13,171,957
12/01/98,16:20:01,436,164,-13,157,957
12/01/98,16:25:01,367,153,-13,162,957
12/01/98,16:30:01,413,169,-13,186,957
12/01/98,16:35:01,463,164,-13,245,957
12/01/98,16:40:01,521,164,-13,312,955
12/01/98,16:45:01,521,164,-13,359,955
12/01/98,16:50:01,506,164,-12,398,955
12/01/98,16:55:01,530,157,-12,442,955
12/01/98,17:00:01,498,146,-12,417,957
12/01/98,17:05:01,446,153,-12,363,957
12/01/98,17:10:01,426,169,-12,355,957
12/01/98,17:15:01,480,173,-12,314,957
12/01/98,17:20:01,428,173,-12,246,957
12/01/98,17:25:01,360,175,-12,184,957
12/01/98,17:30:01,359,166,-12,192,957
12/01/98,17:35:01,395,166,-12,321,957
12/01/98,17:40:01,444,143,-12,202,957
12/01/98,17:45:01,482,157,-12,200,957
12/01/98,17:50:01,473,170,-12,234,957
12/01/98,17:55:01,494,160,-12,215,957
12/01/98,18:00:01,499,158,-12,315,957
12/01/98,18:05:01,553,168,-12,213,957
12/01/98,18:10:01,523,169,-12,208,957
12/01/98,18:15:01,540,169,-12,212,957
12/01/98,18:20:01,502,169,-12,208,957
12/01/98,18:25:01,512,169,-12,204,957
12/01/98,18:30:01,502,162,-12,204,957
12/01/98,18:35:01,538,162,-12,206,957
12/01/98,18:40:01,421,162,-12,204,957
12/01/98,18:45:01,378,162,-11,196,957
12/01/98,18:50:01,527,154,-11,186,957
12/01/98,18:55:01,428,156,-11,184,957
12/01/98,19:00:01,430,157,-11,180,957
12/01/98,19:05:01,433,157,-11,190,957
12/01/98,19:10:01,492,155,-11,200,957
12/01/98,19:15:01,539,155,-11,342,957
12/01/98,19:20:01,475,164,-11,249,957
12/01/98,19:25:01,481,164,-11,210,957
12/01/98,19:30:01,421,164,-11,230,957
12/01/98,19:35:01,428,163,-11,253,957
12/01/98,19:40:01,389,173,-11,400,957
12/01/98,19:45:01,415,163,-10,517,957
12/01/98,19:50:01,429,163,-10,360,957
12/01/98,19:55:01,505,163,-10,285,957
12/01/98,20:00:01,469,163,-10,270,957
12/01/98,20:05:01,399,165,-10,238,957
12/01/98,20:10:01,416,160,-10,222,957
12/01/98,20:15:01,462,160,-10,211,957
12/01/98,20:20:01,410,160,-10,213,957
12/01/98,20:25:01,348,160,-10,213,957
12/01/98,20:30:01,404,160,-10,229,957
12/01/98,20:35:01,349,170,-10,217,957
12/01/98,20:40:01,319,159,-10,213,957
12/01/98,20:45:01,357,170,-10,213,957
12/01/98,20:50:01,404,171,-10,221,957
12/01/98,20:55:01,366,171,-10,213,957
12/01/98,21:00:01,348,171,-10,181,957
12/01/98,21:05:01,411,162,-10,225,957
12/01/98,21:10:01,400,169,-11,194,957
12/01/98,21:15:01,339,158,-11,191,957
12/01/98,21:20:01,272,164,-11,162,957
12/01/98,21:25:01,289,164,-11,186,957
12/01/98,21:30:01,265,170,-11,196,957
12/01/98,21:35:01,379,160,-11,260,957
12/01/98,21:40:01,359,158,-11,230,957
12/01/98,21:45:01,456,170,-11,240,957
12/01/98,21:50:01,403,169,-11,227,957
12/01/98,21:55:01,371,169,-11,222,957
12/01/98,22:00:01,402,169,-12,227,957
12/01/98,22:05:01,456,159,-12,236,957
12/01/98,22:10:01,445,162,-12,246,957
12/01/98,22:15:01,387,162,-12,246,957
12/01/98,22:20:01,408,162,-12,236,957
12/01/98,22:25:01,364,155,-12,238,957
12/01/98,22:30:01,362,158,-12,220,957
12/01/98,22:35:01,441,158,-12,218,957
12/01/98,22:40:01,411,158,-12,232,957
12/01/98,22:45:01,312,158,-12,219,957
12/01/98,22:50:01,384,156,-12,233,957
12/01/98,22:55:01,422,167,-12,243,957
12/01/98,23:00:01,367,160,-12,248,959
12/01/98,23:05:01,389,157,-12,271,959
12/01/98,23:10:01,354,169,-12,278,959
12/01/98,23:15:01,403,165,-12,296,959
12/01/98,23:20:01,350,171,-12,300,959
12/01/98,23:25:01,372,167,-12,268,959
12/01/98,23:30:01,445,168,-12,222,957
12/01/98,23:35:01,525,168,-12,151,957
12/01/98,23:40:01,512,164,-12,111,957
12/01/98,23:45:01,546,164,-13,102,957
12/01/98,23:50:01,534,164,-13,215,957
12/01/98,23:55:01,540,164,-13,152,957
12/02/98,00:00:01,529,164,-13,568,957
